Hourly Data Report for June 23, 2021

WINNIPEG THE FORKS
MANITOBA
Current Station Operator: ECCC - MSC

49°53'18.008" N
97°07'46.007" W
230.00 m
5023262
71579
XWN

Download Data

Hourly Data (June 2021)
Hourly Data Report for June 23, 2021
TIME
LST
Temp Definition
°C
Dew Point Definition
°C
Rel Hum Definition
%
Precip. Amount Definition
mm

Wind Dir Definition
10's deg

Wind Spd Definition
km/h
Visibility Definition
km
Stn Press Definition
kPa
Hmdx Definition


Wind Chill Definition


Weather Definition


00:00 19.8 8.0 46 0.0 19 4   97.40     LegendNANA
01:00 20.8 6.9 40 0.0 19 5   97.33     LegendNANA
02:00 20.4 6.7 41 0.0 20 9   97.26     LegendNANA
03:00 19.7 7.4 45 0.0 20 10   97.21     LegendNANA
04:00 19.8 7.1 44 0.0 20 12   97.18     LegendNANA
05:00 19.7 6.3 42 0.0 20 15   97.16     LegendNANA
06:00 19.8 6.6 42 0.0 20 14   97.13     LegendNANA
07:00 21.0 7.5 42 0.0 20 13   97.11     LegendNANA
08:00 23.0 8.3 39 0.0 20 17   97.03     LegendNANA
09:00 25.8 9.9 37 0.0 21 14   97.01 27   LegendNANA
10:00 29.1 9.8 30 0.0 22 11   97.00 30   LegendNANA
11:00 31.1 10.1 27 0.0 21 11   96.99 32   LegendNANA
12:00 31.2 9.1 25 0.0 26 9   97.06 32   LegendNANA
13:00 30.0 10.4 30 0.0 27 4   97.02 31   LegendNANA
14:00 29.4 9.1 28 0.0 27 11   97.17 30   LegendNANA
15:00 27.9 9.2 31 0.0 32 12   97.14 29   LegendNANA
16:00 24.8 12.2 45 0.0 29 4   97.24 27   LegendNANA
17:00 24.4 11.7 45 0.0 30 7   97.37 27   LegendNANA
18:00 23.8 11.5 46 0.0 32 13   97.44 26   LegendNANA
19:00 23.7 10.6 44 0.0 32 9   97.49 25   LegendNANA
20:00 22.4 11.9 52 0.0 33 7   97.61 25   LegendNANA
21:00 21.7 12.5 56 0.0 31 3   97.70     LegendNANA
22:00 21.4 12.5 57 0.0 26 4   97.79     LegendNANA
23:00 19.9 12.8 63 0.0 0 1   97.84     LegendNANA

Notes on Data Quality.

Legend

  • E = Estimated
  • M = Missing
  • NA = Not Available*
  • [empty] = Indicates an unobserved value
Date modified: